Location: Albany
(35.0000°S, 118.0000°E)
Time: 10:22:36

JAS-1B - Pass Details

Date: 26 February 2018
Orbit: 911 x 1744 km, 99.1° (Epoch: 19 March)

Event Time Altitude Azimuth Distance (km) Brightness Sun altitude
Rises 13:05:08 0° 186° (S) 4,616 11.1 -40.0°
Reaches altitude 10° 13:09:32 10° 207° (SSW) 3,776 10.3 -39.5°
Maximum altitude 13:13:54 15° 236° (WSW) 3,521 9.8 -38.9°
Enters shadow 13:14:19 15° 239° (WSW) 3,534 9.8 -38.9°
